• In Hungary
  • List of Countries
  • For 7 days
  • Water Temperature
  • Satellite Maps
  • Weather Map
  • News
  • Weather Widgets
  • user-avatar
    Login

    Hourly Weather Nesterovo

    Today, 22 February, Thursday

    Time Temperature Precipitation Wind Pressure Humidity
    00:00 -17°C° 0 mm 1 mps 711 mmHg 94%
    01:00 -17°C° 0 mm 1 mps 710 mmHg 95%
    02:00 -18°C° 0 mm 1 mps 710 mmHg 95%
    03:00 -18°C° 0 mm 1 mps 710 mmHg 95%
    04:00 -18°C° 0 mm 1 mps 710 mmHg 95%
    05:00 -19°C° 0 mm 1 mps 710 mmHg 96%
    06:00 -19°C° 0 mm 1 mps 710 mmHg 96%
    07:00 -18°C° 0 mm 1 mps 709 mmHg 95%
    08:00 -16°C° 0 mm 1 mps 709 mmHg 92%
    09:00 -14°C° 0 mm 1 mps 710 mmHg 88%
    10:00 -12°C° 0 mm 1 mps 710 mmHg 85%
    11:00 -14°C° 0.1 mm 2 mps 709 mmHg 82%
    12:00 -13°C° 0.1 mm 2 mps 709 mmHg 78%
    13:00 -14°C° 0 mm 3 mps 709 mmHg 76%
    14:00 -14°C° 0 mm 3 mps 710 mmHg 77%
    15:00 -15°C° 0 mm 3 mps 710 mmHg 77%
    16:00 -15°C° 0 mm 3 mps 710 mmHg 78%
    17:00 -16°C° 0 mm 2 mps 711 mmHg 83%
    18:00 -19°C° 0 mm 2 mps 711 mmHg 87%
    19:00 -18°C° 0 mm 1 mps 711 mmHg 90%
    20:00 -19°C° 0 mm 1 mps 712 mmHg 91%
    21:00 -20°C° 0 mm 1 mps 712 mmHg 92%
    22:00 -21°C° 0 mm 1 mps 713 mmHg 92%
    23:00 -21°C° 0 mm 1 mps 713 mmHg 92%

    Tomorrow, 23 February, Friday

    Time Temperature Precipitation Wind Pressure Humidity
    00:00 -22°C° 0 mm 1 mps 713 mmHg 92%
    01:00 -22°C° 0 mm 1 mps 714 mmHg 93%
    02:00 -22°C° 0 mm 1 mps 714 mmHg 92%
    03:00 -23°C° 0 mm 1 mps 714 mmHg 92%
    04:00 -23°C° 0 mm 1 mps 715 mmHg 92%
    05:00 -23°C° 0 mm 1 mps 715 mmHg 93%
    06:00 -23°C° 0 mm 1 mps 715 mmHg 93%
    07:00 -24°C° 0 mm 1 mps 715 mmHg 93%
    08:00 -21°C° 0 mm 1 mps 715 mmHg 90%
    09:00 -18°C° 0 mm 1 mps 715 mmHg 88%
    10:00 -18°C° 0 mm 2 mps 716 mmHg 86%
    11:00 -16°C° 0 mm 2 mps 715 mmHg 84%
    12:00 -15°C° 0 mm 2 mps 715 mmHg 82%
    13:00 -14°C° 0 mm 3 mps 715 mmHg 80%
    14:00 -14°C° 0 mm 3 mps 715 mmHg 81%
    15:00 -13°C° 0 mm 2 mps 715 mmHg 82%
    16:00 -13°C° 0 mm 2 mps 715 mmHg 84%
    17:00 -15°C° 0 mm 2 mps 715 mmHg 87%
    18:00 -15°C° 0 mm 1 mps 715 mmHg 91%
    19:00 -17°C° 0 mm 1 mps 715 mmHg 94%
    20:00 -17°C° 0 mm 1 mps 715 mmHg 94%
    21:00 -18°C° 0 mm 1 mps 715 mmHg 94%
    22:00 -18°C° 0 mm 1 mps 715 mmHg 95%
    23:00 -18°C° 0 mm 1 mps 715 mmHg 95%

    Day after tomorrow, 24 February, Saturday

    Time Temperature Precipitation Wind Pressure Humidity
    00:00 -18°C° 0 mm 1 mps 715 mmHg 95%
    01:00 -18°C° 0 mm 1 mps 715 mmHg 95%
    02:00 -18°C° 0 mm 1 mps 715 mmHg 95%
    03:00 -18°C° 0 mm 1 mps 715 mmHg 95%
    04:00 -18°C° 0 mm 1 mps 715 mmHg 95%
    05:00 -17°C° 0 mm 1 mps 715 mmHg 95%
    06:00 -17°C° 0 mm 1 mps 715 mmHg 95%
    07:00 -17°C° 0 mm 1 mps 715 mmHg 95%
    08:00 -15°C° 0.1 mm 1 mps 715 mmHg 92%
    09:00 -13°C° 0.1 mm 1 mps 715 mmHg 90%
    10:00 -11°C° 0.1 mm 1 mps 715 mmHg 87%
    11:00 -10°C° 0.1 mm 1 mps 714 mmHg 86%
    12:00 -9°C° 0.1 mm 1 mps 714 mmHg 84%
    13:00 -7°C° 0.1 mm 1 mps 714 mmHg 82%
    14:00 -8°C° 0 mm 1 mps 713 mmHg 83%
    15:00 -8°C° 0 mm 1 mps 713 mmHg 84%
    16:00 -8°C° 0 mm 1 mps 713 mmHg 86%
    17:00 -10°C° 0 mm 1 mps 713 mmHg 89%
    18:00 -12°C° 0 mm 1 mps 713 mmHg 92%
    19:00 -14°C° 0 mm 1 mps 713 mmHg 95%
    20:00 -14°C° 0 mm 1 mps 713 mmHg 95%
    21:00 -15°C° 0 mm 1 mps 713 mmHg 95%
    22:00 -16°C° 0 mm 1 mps 713 mmHg 95%
    23:00 -16°C° 0 mm 1 mps 713 mmHg 95%

    25 February, Sunday

    Time Temperature Precipitation Wind Pressure Humidity
    00:00 -16°C° 0 mm 1 mps 713 mmHg 95%
    01:00 -16°C° 0 mm 1 mps 713 mmHg 95%
    02:00 -16°C° 0 mm 1 mps 712 mmHg 95%
    03:00 -16°C° 0 mm 1 mps 712 mmHg 95%
    04:00 -17°C° 0 mm 1 mps 712 mmHg 95%
    05:00 -17°C° 0 mm 1 mps 712 mmHg 95%
    06:00 -17°C° 0 mm 1 mps 712 mmHg 95%
    07:00 -17°C° 0 mm 1 mps 712 mmHg 95%
    08:00 -15°C° 0 mm 1 mps 712 mmHg 91%
    09:00 -12°C° 0 mm 1 mps 712 mmHg 88%
    10:00 -10°C° 0 mm 1 mps 712 mmHg 84%
    11:00 -9°C° 0 mm 1 mps 712 mmHg 82%
    12:00 -7°C° 0 mm 1 mps 711 mmHg 81%
    13:00 -6°C° 0 mm 1 mps 711 mmHg 79%
    14:00 -6°C° 0 mm 1 mps 711 mmHg 80%
    15:00 -6°C° 0 mm 1 mps 711 mmHg 82%
    16:00 -6°C° 0 mm 1 mps 710 mmHg 83%
    17:00 -7°C° 0 mm 1 mps 711 mmHg 86%
    18:00 -9°C° 0 mm 1 mps 711 mmHg 88%
    19:00 -10°C° 0 mm 0 mps 711 mmHg 91%
    20:00 -10°C° 0.1 mm 1 mps 712 mmHg 92%
    21:00 -10°C° 0.1 mm 1 mps 712 mmHg 93%
    22:00 -10°C° 0.1 mm 1 mps 712 mmHg 94%
    23:00 -10°C° 0.2 mm 1 mps 713 mmHg 94%

    26 February, Monday

    Time Temperature Precipitation Wind Pressure Humidity
    00:00 -10°C° 0.2 mm 1 mps 713 mmHg 95%
    01:00 -10°C° 0.2 mm 1 mps 713 mmHg 95%
    02:00 -10°C° 0.2 mm 1 mps 714 mmHg 95%
    03:00 -10°C° 0.2 mm 1 mps 714 mmHg 95%
    04:00 -10°C° 0.2 mm 1 mps 714 mmHg 96%
    05:00 -10°C° 0.2 mm 1 mps 715 mmHg 95%
    06:00 -12°C° 0.2 mm 2 mps 715 mmHg 94%
    07:00 -12°C° 0.2 mm 2 mps 716 mmHg 93%
    08:00 -12°C° 0 mm 2 mps 716 mmHg 89%
    09:00 -12°C° 0 mm 2 mps 717 mmHg 85%
    10:00 -12°C° 0 mm 3 mps 717 mmHg 81%
    11:00 -12°C° 0 mm 3 mps 717 mmHg 79%
    12:00 -10°C° 0 mm 3 mps 716 mmHg 77%
    13:00 -10°C° 0 mm 3 mps 716 mmHg 75%
    14:00 -9°C° 0 mm 2 mps 716 mmHg 77%
    15:00 -10°C° 0 mm 2 mps 716 mmHg 79%
    16:00 -10°C° 0 mm 2 mps 716 mmHg 80%
    17:00 -13°C° 0 mm 2 mps 716 mmHg 84%
    18:00 -12°C° 0 mm 1 mps 717 mmHg 87%
    19:00 -14°C° 0 mm 1 mps 717 mmHg 91%
    20:00 -14°C° 0 mm 1 mps 717 mmHg 91%
    21:00 -15°C° 0 mm 1 mps 717 mmHg 92%
    22:00 -15°C° 0 mm 1 mps 717 mmHg 93%
    23:00 -16°C° 0 mm 1 mps 717 mmHg 93%

    27 February, Tuesday

    Time Temperature Precipitation Wind Pressure Humidity
    00:00 -16°C° 0 mm 1 mps 717 mmHg 94%
    01:00 -17°C° 0 mm 1 mps 717 mmHg 94%
    02:00 -17°C° 0 mm 1 mps 717 mmHg 94%
    03:00 -17°C° 0 mm 1 mps 717 mmHg 95%
    04:00 -18°C° 0 mm 1 mps 717 mmHg 95%
    05:00 -18°C° 0 mm 1 mps 717 mmHg 95%
    06:00 -18°C° 0 mm 1 mps 717 mmHg 95%
    07:00 -18°C° 0 mm 1 mps 718 mmHg 95%
    08:00 -17°C° 0 mm 1 mps 718 mmHg 90%
    09:00 -15°C° 0 mm 1 mps 718 mmHg 84%
    10:00 -15°C° 0 mm 2 mps 718 mmHg 79%
    11:00 -14°C° 0 mm 2 mps 717 mmHg 77%
    12:00 -15°C° 0 mm 3 mps 717 mmHg 75%
    13:00 -14°C° 0 mm 3 mps 717 mmHg 72%
    14:00 -15°C° 0 mm 3 mps 717 mmHg 74%
    15:00 -15°C° 0 mm 3 mps 716 mmHg 76%
    16:00 -16°C° 0 mm 3 mps 716 mmHg 77%
    17:00 -18°C° 0 mm 3 mps 717 mmHg 82%
    18:00 -19°C° 0 mm 2 mps 717 mmHg 87%
    19:00 -19°C° 0 mm 1 mps 717 mmHg 92%
    20:00 -19°C° 0 mm 1 mps 717 mmHg 94%
    21:00 -20°C° 0 mm 1 mps 717 mmHg 95%
    22:00 -21°C° 0 mm 1 mps 717 mmHg 96%
    23:00 -21°C° 0 mm 1 mps 717 mmHg 96%
    Show more